Showing default

HOTBIRD 13F, 54048

Orbit data source: Space-Track

HOTBIRD 13F, 54048 is a payload satellite owned by EutelsatSA (FR) in GEO that was launched on Sat, 15 Oct 2022 UTC via an FALCON 9 launch vehicle from the Air Force Eastern Test Range (AFETR). Payload-class satellites include a variety of spacecraft equipped with specific instruments for various scientific and technological missions. These include communications satellites like Starlink; space stations such as the ISS; scientific satellites like the Hubble; Earth observation satellites from companies like Planet Labs, Umbra, and HawkEye 360; GPS; miniature CubeSats for education and research; and military/defense satellites.

Not visible in the next 10 days
Identifier
54048, 2022-134A
Orbit
GEO
Country
Flag of FRFR / EUTE
Related business
Manufacturer
Airbus/Toulouse
Mission
Operational Commercial Communications
Bus & Motor
EUROSTAR NEO, PPS-5000
Mass
4,476 kg wet, ~4,200 kg dry
Launch date (UTC)
2022-10-15 (4 years ago)
Launch vehicle
FALCON 9
Launch site
Air Force Eastern Test Range (AFETR)
Object type
Payload
Rocket body
Debris
Shape & HBR
Box + 2 Pan, 20.0 m
Radar Cross Section
55.239 m², Large (>1 m²)

Expand to show TLE details & history
Last TLE update: 2 days ago

TLE from 2 days ago
0 HOTBIRD 13F
1 54048U 22134A   26171.18068367  .00000082  00000-0  00000-0 0  9999
2 54048   0.0471 295.1519 0001947  64.5697 346.7332  1.00273367 13400
Epoch: 2026-06-20T04:20Z
TLE epoch observation values (Epoch: 2026-06-20T04:20:11.069Z)
Latitude
0.03205°
Longitude
13.01693°
Altitude
35,777.68 km
Speed
3.075 km/s
True Right ascension
23h 05m 50s
True Declination
0° 01' 55"
Sunlit
Object was in daylight at epoch
Visualization orbit readout
Latitude
Unknown
Longitude
Unknown
Altitude
Unknown
Speed
Unknown
Apparent Right ascension
Unknown
Apparent Declination
Unknown
Sunlit
N/A
Visualization observer readout
Local Sidereal Time
21:37:59
Azimuth
Unknown
Elevation
Unknown
Doppler factor
Unknown
Orbital elements
Apogee altitude
35,795.431 km
Perigee altitude
35,779.012 km
Semi-major axis
42,165.359 km
Eccentricity
0.00019
Inclination
0.0471°
RAAN
295.1519°
Arg. of periapsis
64.5697°
True anomaly
346.72808°
Mean anomaly
346.7332°
Eccentric anomaly
346.73064°
Mean motion
0.25067 °/min
Orbital period
1,436.13 mins
BSTAR
0
Loading maneuver chart data...
Computing Atmospheric mass density...
Loading historical data...
Loading historical data...
Loading historical data...
Loading historical data...
Loading historical data...
Loading historical data...
Loading historical data...
Other satellites on launch #134 in the year 2022 (2022-10-15 UTC)

Documentation

Showing up to 5 results
|